Mario Vidal

Olheiro-Chefe - Alvarado
19 Nov 2028
Domingo
Processo

Personalidade

Adaptabilidade (20) Ambição (6) Controvérsia (19) Lealdade (14) Pressão (11) Profissionalismo (7) Espírito Esportivo (12) Temperamento (9)

Perfil

Estilo de Treinamento Democrático
Licença Continental Pro
Determinação 6
Gestão de Pessoas 3
Motivação 5
Disciplina 2
Satisfação no Trabalho
100%
Fadiga
0%
Função Olheiro-Chefe
Salário 15.3K p/s
Contrato 14.03.2029

Desempenho

Comportamento Bom
Eficácia do Treinamento
13%
Desenvolvimento do Jogador
5%
Prevenção de Lesões
20%
Implementação Tática
30%

Eventos Recentes

Participou de uma reunião de recrutamento 7d atrás
Participou de uma reunião de recrutamento 14d atrás
Participou de uma reunião de recrutamento 21d atrás
Participou de uma reunião de recrutamento 28d atrás
Participou de uma reunião de recrutamento 35d atrás
Participou de uma reunião de recrutamento 42d atrás
Participou de uma reunião de recrutamento 49d atrás
Participou de uma reunião de recrutamento 56d atrás

Monitorando agora

190
Jogador Clube Status Habilidade Confiança Observado Última observação Último voto
Gonzalo Flores Almirante Brown Ativo 96 / 99 40% 2 29.11.2026 -
Brayan Palmezano Deportivo Tachira Ativo 107 / 109 40% 1 29.11.2026 -
Agustín Olavarría Colon Ativo 92 / 94 40% 2 28.11.2026 -
Tomás Castro Ponce Atlanta Ativo 120 / 127 40% 1 28.11.2026 -
Gustavo Dionisi Guarani Ativo 92 / 84 40% 1 28.11.2026 -
Tyrese Spicer Orlando City Ativo 122 / 122 40% 2 26.11.2026 -
Nicolás Leites Artigas Ativo 84 / 94 40% 1 26.11.2026 -
Juan Quintana Montevideo City Torque Ativo 114 / 95 40% 1 25.11.2026 -
Paolo Medina Austin FC Ativo 91 / 125 40% 1 25.11.2026 -
Francisco Salerno Defensores Unidos Ativo 103 / 116 40% 2 24.11.2026 -
Facundo Lencioni Gimnasia y Esgrima Ativo 107 / 117 40% 1 24.11.2026 -
Massimo Sandi Sport Huancayo Ativo 93 / 88 40% 1 24.11.2026 -
Blas Armoa Gimnasia y Esgrima Ativo 127 / 124 40% 1 23.11.2026 -
Facundo Butti Cerro Ativo 90 / 104 40% 1 22.11.2026 -
Sebastián da Silva Racing Ativo 98 / 95 40% 2 21.11.2026 -
Germán Peralta La Luz Ativo 93 / 114 40% 1 21.11.2026 -
Richard Torales Guarani Ativo 117 / 112 40% 1 21.11.2026 -
Christian Castillo Tijuana Ativo 93 / 113 40% 1 20.11.2026 -
Nahuel Soria Oriental Ativo 89 / 101 40% 3 18.11.2026 -
Kleyder Barreto Zamora Ativo 101 / 96 40% 2 17.11.2026 -
Jairo Amaro Cerro Ativo 95 / 101 40% 1 17.11.2026 -
Fernando Bersano Madryn Ativo 131 / 100 40% 1 17.11.2026 -
Luis Iberico Sporting Cristal Ativo 103 / 126 40% 2 16.11.2026 -
Facundo Vila Estudiantes Ativo 93 / 86 40% 1 16.11.2026 -
Nicolás Rossi Juventud Ativo 108 / 110 40% 2 15.11.2026 -
Santiago Herrera Estudiantes de Caracas Ativo 101 / 84 40% 1 15.11.2026 -
Manuel Duarte Barracas Central Ativo 122 / 132 40% 1 14.11.2026 -
Juan Velázquez Belgrano Ativo 124 / 141 40% 1 14.11.2026 -
Facundo Di Biasi Gimnasia La Plata Ativo 111 / 126 40% 1 13.11.2026 -
Lucas González Nacional Ativo 110 / 99 40% 1 12.11.2026 -
Agustín Bianciotti Metropolitanos Ativo 110 / 111 40% 1 11.11.2026 -
Néstor Giménez Libertad Ativo 111 / 100 40% 1 11.11.2026 -
Ezequiel Neira Carabobo Ativo 121 / 105 40% 1 11.11.2026 -
Santiago Ramírez Deportivo Maldonado Ativo 103 / 114 40% 4 10.11.2026 -
Franco González Penarol Ativo 103 / 101 40% 1 10.11.2026 -
Tomás Zamora Mineros de Guayana Ativo 96 / 88 40% 1 10.11.2026 -
Ignacio Yepez Cerrito Ativo 106 / 97 40% 2 08.11.2026 -
Cristian Lima Uruguay Montevideo Ativo 103 / 108 40% 4 07.11.2026 -
Francisco Casanova Cerrito Ativo 112 / 106 40% 1 06.11.2026 -
Kevin Lezcano Guarani Ativo 90 / 72 40% 1 05.11.2026 -
Gaizka Gómez Wanderers Ativo 78 / 88 40% 1 05.11.2026 -
Martín Vallejo Oriental Ativo 79 / 91 40% 2 04.11.2026 -
Favio Cabral Mitre Ativo 119 / 131 40% 3 04.11.2026 -
Joaquín Bigo Tristán Suárez Ativo 121 / 102 40% 1 04.11.2026 -
Ramiro Hernandes Belgrano Ativo 108 / 140 40% 1 04.11.2026 -
Misael Tarón Ferro Carril Oeste Ativo 102 / 101 40% 1 02.11.2026 -
Brian Nievas Chaco For Ever Ativo 97 / 115 40% 2 01.11.2026 -
Facundo Silvera Montevideo City Torque Ativo 114 / 120 40% 1 01.11.2026 -
Axel Herrera Santiago Wanderers Ativo 100 / 85 40% 1 31.10.2026 -
Franco Suárez Racing Ativo 100 / 100 40% 1 31.10.2026 -
Brian González Atenas Ativo 108 / 92 40% 2 30.10.2026 -
Martín Araya Palestino Ativo 80 / 101 40% 1 29.10.2026 -
Nicolás Forastiero Deportivo Maldonado Ativo 92 / 91 40% 1 29.10.2026 -
Agustín Solari 12 de Octubre Ativo 86 / 84 40% 1 29.10.2026 -
Esteban Moreira O'Higgins Ativo 100 / 91 40% 1 28.10.2026 -
Fernando Miranda Colegiales Ativo 108 / 119 40% 1 28.10.2026 -
Juan Ignacio Méndez Instituto Ativo 125 / 125 40% 1 28.10.2026 -
Enzo Silcan Almagro Ativo 98 / 97 40% 1 27.10.2026 -
Rodrigo Muníz Uruguay Montevideo Ativo 106 / 107 40% 2 26.10.2026 -
José Barreto Quilmes Ativo 124 / 119 40% 1 26.10.2026 -
Alejo Montero Newell's Old Boys Ativo 133 / 131 40% 1 26.10.2026 -
Leandro Umpiérrez Penarol Ativo 109 / 113 40% 1 25.10.2026 -
Martín Pino Godoy Cruz Ativo 104 / 106 40% 1 25.10.2026 -
Alejandro Samudio Nacional Ativo 96 / 108 40% 2 24.10.2026 -
Juan Moreno La Luz Ativo 114 / 125 40% 2 22.10.2026 -
Nahuel Sena Cerro Ativo 98 / 114 40% 1 20.10.2026 -
Francisco Galván Deportivo Municipal Ativo 119 / 100 40% 3 19.10.2026 -
Hugo Ancajima Universitario Ativo 108 / 105 40% 2 18.10.2026 -
Fernando Savarino Llaneros Ativo 104 / 100 40% 1 18.10.2026 -
Omar Robles Real Cartagena Ativo 60 / 66 40% 1 17.10.2026 -
Renato Alexandrino Oriental Ativo 83 / 100 40% 1 15.10.2026 -
Diego Magallanes Defensores Ativo 108 / 92 40% 1 15.10.2026 -
Gerardo Valenzuela FC Cincinnati Ativo 95 / 107 40% 1 14.10.2026 -
Kevin Alaniz Rampla Juniors Ativo 102 / 85 40% 1 13.10.2026 -
Agustín Benítez Defensores Ativo 110 / 117 40% 1 13.10.2026 -
Matías Mir Liverpool Montevideo Ativo 114 / 117 40% 1 13.10.2026 -
Kevin Lewis Liverpool Montevideo Ativo 93 / 93 40% 2 12.10.2026 -
Juan Pablo Noce All Boys Ativo 119 / 113 40% 1 12.10.2026 -
Ronny Maza Aragua Ativo 93 / 90 40% 1 12.10.2026 -
Jerónimo Russo Newell's Old Boys Ativo 111 / 98 40% 1 12.10.2026 -
José Cabrera Union Magdalena Ativo 95 / 90 40% 1 12.10.2026 -
Lautaro Gordillo Colegiales Ativo 125 / 108 40% 2 10.10.2026 -
Nicolás Heiz Maipú Ativo 117 / 106 40% 1 09.10.2026 -
Luciano Jachfe Nueva Chicago Ativo 106 / 99 40% 1 09.10.2026 -
Laureano Martínez Talleres Ativo 107 / 124 40% 1 09.10.2026 -
Álex Perdomo Defensor Sporting Ativo 105 / 114 40% 2 08.10.2026 -
Maicol Ferreira Danubio Ativo 118 / 109 40% 1 08.10.2026 -
Gaspar Duarte Rosario Central Ativo 109 / 121 40% 1 07.10.2026 -
Jimmy Evans Universidad Catolica Ativo 108 / 99 40% 2 06.10.2026 -
Luifer Hernández Puebla Ativo 99 / 125 40% 1 06.10.2026 -
Francisco Sagardia Rentistas Ativo 78 / 77 40% 1 05.10.2026 -
Franco Malagueño Colegiales Ativo 115 / 109 40% 1 05.10.2026 -
Julián Vila Arsenal Ativo 118 / 108 40% 1 05.10.2026 -
Franco Bustamante Almagro Ativo 115 / 98 40% 1 05.10.2026 -
Maximiliano Rueda Patronato Ativo 101 / 121 40% 1 05.10.2026 -
Martin Carreño San Luis Ativo 85 / 87 40% 2 03.10.2026 -
Nicolás Fernández Maipú Ativo 119 / 93 40% 1 03.10.2026 -
Jesús Vega Queretaro Ativo 112 / 119 40% 1 01.10.2026 -
Sebastián Cocimano Nueva Chicago Ativo 103 / 119 40% 1 01.10.2026 -
Lautaro Maldonado Instituto Ativo 117 / 126 40% 1 01.10.2026 -
Luis Barbat Cerrito Ativo 80 / 78 40% 1 01.10.2026 -
Augusto Berrondo Tristán Suárez Ativo 113 / 108 40% 2 30.09.2026 -
José Rivera Universitario Ativo 125 / 125 40% 1 30.09.2026 -
Alejandro Molina Tristán Suárez Ativo 112 / 107 40% 1 29.09.2026 -
Diego Corral Universidad Catolica Ativo 79 / 102 40% 1 29.09.2026 -
Matías Núñez Atenas Ativo 97 / 112 40% 3 27.09.2026 -
Matías Viguet Maipú Ativo 102 / 121 40% 1 27.09.2026 -
Santiago Sala Güemes Ativo 113 / 116 40% 1 26.09.2026 -
Nicolás Fernández Progreso Ativo 96 / 117 40% 1 26.09.2026 -
Yeferson Cordova Llaneros Ativo 95 / 111 40% 1 24.09.2026 -
Nelson Cabanillas Melgar Ativo 98 / 104 40% 2 23.09.2026 -
Junior Paredes Trujillanos Ativo 103 / 86 40% 1 23.09.2026 -
Franco Martínez Artigas Ativo 112 / 100 40% 3 21.09.2026 -
Nicolás Burgio Montevideo City Torque Ativo 86 / 75 40% 1 21.09.2026 -
Gianfranco Chávez Alianza Lima Ativo 108 / 124 40% 1 21.09.2026 -
Cristóbal Guerra San Marcos de Arica Ativo 102 / 103 40% 1 20.09.2026 -
Gali Balanta Deportes Tolima Ativo 84 / 104 40% 2 19.09.2026 -
Agustín Gallo Tristán Suárez Ativo 124 / 109 40% 1 19.09.2026 -
Fabrizio Correa Juventud Ativo 104 / 118 40% 2 18.09.2026 -
Owen Falconis Cerrito Ativo 93 / 109 40% 1 18.09.2026 -
Ignacio Rodríguez Racing Club Ativo 117 / 137 40% 1 17.09.2026 -
Andrés Montaño Cruz Azul Ativo 124 / 130 40% 1 16.09.2026 -
Mauro Rodas Sportivo Trinidense Ativo 95 / 87 40% 1 15.09.2026 -
Franco Pérez Boston River Ativo 93 / 102 40% 1 14.09.2026 -
Pablo López Tacuarembo Ativo 111 / 114 40% 1 14.09.2026 -
Sebastián Guerra Barranquilla Ativo 90 / 97 40% 1 14.09.2026 -
Federico Losas Chacarita Juniors Ativo 114 / 97 40% 1 13.09.2026 -
Agustín Requena Progreso Ativo 98 / 98 40% 1 13.09.2026 -
Marcelo Fernández Libertad Ativo 111 / 116 40% 1 13.09.2026 -
José Rivas Gamboa Trujillanos Ativo 96 / 103 40% 1 13.09.2026 -
Leomar Mosquera Trujillanos Ativo 99 / 111 40% 1 11.09.2026 -
Cristian Tovar America de Cali Ativo 122 / 119 40% 1 10.09.2026 -
Antonio Martínez Cerro Porteno Ativo 74 / 73 40% 1 09.09.2026 -
Mauricio Isais Pachuca Ativo 98 / 141 40% 2 08.09.2026 -
Camilo Machado Madryn Ativo 121 / 112 40% 1 08.09.2026 -
Pedro Pedraza Pachuca Ativo 128 / 109 40% 1 08.09.2026 -
Pablo Cardona Cortulua Ativo 118 / 118 40% 1 07.09.2026 -
Martín Sarrafiore O'Higgins Ativo 113 / 100 40% 1 07.09.2026 -
Elías Torres Racing Club Ativo 115 / 117 40% 1 07.09.2026 -
Gastón Verón Argentinos Juniors Ativo 112 / 129 40% 1 06.09.2026 -
Antonio González Estudiantes de Caracas Ativo 100 / 89 40% 1 06.09.2026 -
Sebastián Guzmán Deportes Tolima Ativo 115 / 130 40% 1 05.09.2026 -
Cristhofer Mesías Universidad de Concepcion Ativo 102 / 102 40% 1 05.09.2026 -
Renato Solís Sporting Cristal Ativo 121 / 105 40% 2 04.09.2026 -
Jeremi Machado Mineros de Guayana Ativo 78 / 81 40% 1 03.09.2026 -
Samuel Velásquez Atletico Nacional Ativo 112 / 120 40% 1 03.09.2026 -
Dylan Lozano Aguilas Doradas Ativo 109 / 101 40% 1 01.09.2026 -
Anthony Stella Artigas Ativo 91 / 103 40% 1 30.08.2026 -
Marco Collao Audax Italiano Ativo 116 / 94 40% 1 30.08.2026 -
Éwil Murillo Santa Fe Ativo 112 / 113 40% 1 30.08.2026 -
Agustín Pereira Albion Ativo 112 / 108 40% 1 29.08.2026 -
Federico Dafonte Boston River Ativo 88 / 112 40% 1 29.08.2026 -
Julian Herrera Cortulua Ativo 124 / 134 40% 2 27.08.2026 -
Santiago Naveda Club America Ativo 96 / 133 40% 2 27.08.2026 -
Facundo Barreto Colon Ativo 69 / 77 40% 1 27.08.2026 -
Juan Romero Olimpia Ativo 105 / 98 40% 1 24.08.2026 -
Víctor Rivarola Guarani Ativo 85 / 105 40% 1 23.08.2026 -
Nahuel Marzochi Colon Ativo 94 / 94 40% 1 22.08.2026 -
Felipe Espinoza Iquique Ativo 105 / 108 40% 1 22.08.2026 -
Luis Palacios Tigres Ativo 112 / 105 40% 1 21.08.2026 -
Alejandro Rincon Llaneros Ativo 107 / 106 40% 1 21.08.2026 -
Moisés Gallo Aragua Ativo 95 / 85 40% 1 19.08.2026 -
Aldo Pérez Guarani Ativo 99 / 93 40% 1 18.08.2026 -
Santiago Cubides Jaguares Ativo 97 / 92 40% 1 18.08.2026 -
Derrick Etienne Jr. Toronto FC Ativo 132 / 138 40% 1 18.08.2026 -
Jordan Carrillo Guadalajara Ativo 133 / 105 40% 1 18.08.2026 -
Leonardo Olavarría Uruguay Montevideo Ativo 90 / 113 40% 1 15.08.2026 -
Alessandro Burlamaqui Alianza Lima Ativo 96 / 127 40% 1 12.08.2026 -
Brian Mancini Rampla Juniors Ativo 87 / 66 40% 1 12.08.2026 -
Cristian Núñez Huracán Ativo 125 / 117 40% 1 10.08.2026 -
Johan Hinestroza Jaguares Ativo 88 / 113 40% 1 10.08.2026 -
Jonathan Amarilla River Plate Ativo 76 / 98 40% 1 07.08.2026 -
Rodrigo Viera Cerrito Ativo 105 / 104 40% 1 07.08.2026 -
Mathías Bernatene Liverpool Montevideo Ativo 103 / 83 40% 1 06.08.2026 -
Francisco Morel Nacional Ativo 75 / 82 40% 1 05.08.2026 -
Christian Franco Oriental Ativo 87 / 91 40% 1 05.08.2026 -
Ismael Tejería Rampla Juniors Ativo 90 / 78 40% 1 05.08.2026 -
Álvaro San Emeterio Tacuarembo Ativo 103 / 88 40% 1 05.08.2026 -
Ronald Duarte 12 de Octubre Ativo 81 / 93 40% 1 04.08.2026 -
Andrés Buelvas Bogota Ativo 78 / 82 40% 1 04.08.2026 -
Léider Riascos Llaneros Ativo 129 / 129 40% 1 04.08.2026 -
Esteban Beltrán Jaguares Ativo 117 / 115 40% 1 04.08.2026 -
Paolo Reyna Universitario Ativo 115 / 124 40% 1 03.08.2026 -
Carlos Romaña Atletico Bucaramanga Ativo 128 / 107 40% 1 03.08.2026 -
Martín Ballesteros Audax Italiano Ativo 91 / 69 40% 1 03.08.2026 -
Ángel González Libertad Ativo 89 / 111 40% 1 03.08.2026 -
Jeriel De Santis Caracas Ativo 96 / 97 40% 1 02.08.2026 -
Briam Acosta Albion Ativo 106 / 104 40% 1 01.08.2026 -
Milton Giménez Boca Juniors Ativo 132 / 144 40% 1 01.08.2026 -
Andrés Reyes Atletico Nacional Ativo 110 / 135 40% 1 01.08.2026 -